Regional Weather Roundup
Issued by NWS State College, PA

Home | Current Version | Previous Version | Text Only | Print | Product List | Glossary On
Versions: 1 2 3 4 5 6 7 8 9 10 11 12 13 14 15 16 17 18 19 20 21 22 23 24 25 26 27 28 29 30 31 32 33 34 35 36 37 38 39 40 41 42 43 44 45 46 47 48 49 50
000
ASUS41 KCTP 221710
RWRCTP

REGIONAL WEATHER ROUNDUP
NATIONAL WEATHER SERVICE STATE COLLEGE PA
100 PM EDT THU JUN 22 2017

Note: "fair" indicates few or no clouds below 12,000 feet with no
significant weather and/or obstructions to visibility.

* = STATION THAT DOES NOT REPORT PRECIPITATION /E.G. RAIN...SNOW...ETC/
    THUNDER OR FOG.

PAZ002>004-007>009-013>016-020>023-029>032-221800-
WESTERN PENNSYLVANIA

CITY           SKY/WX    TMP DP  RH WIND       PRES   REMARKS
ERIE           CLOUDY    77  69  76 S10       29.93F
MEADVILLE      PTSUNNY   75  70  84 SW7       29.99S
FRANKLIN*      PTSUNNY   79  66  65 SW8       30.01F
NEW CASTLE     FAIR      84  72  67 VRB6      29.99F
BEAVER COUNTY  PTSUNNY   82  70  65 SW7       30.01F
BUTLER*        CLOUDY    82  70  65 SW5       30.01F
PITTSBURGH INT CLOUDY    81  71  71 W7        30.01F
PITTSBURGH     PTSUNNY   82  69  64 SW12      30.02S
INDIANA*       PTSUNNY   79  72  78 SW9G15    30.06S
LATROBE        PTSUNNY   81  72  74 SW12      30.04F
WASHINGTON CO* MOSUNNY   82  70  65 S6        30.05F
$$

PAZ004>006-010>012-017>019-024>028-033>037-041-042-045-046-049>053-221800-
CENTRAL PENNSYLVANIA

CITY           SKY/WX    TMP DP  RH WIND       PRES   REMARKS
BRADFORD       MOSUNNY   78  62  57 SW9G17    30.03S
DUBOIS         PTSUNNY   77  64  64 W8        30.03S
CLEARFIELD     MOSUNNY   84  65  52 W10       30.01F
JOHNSTOWN      CLOUDY    77  67  71 W8        30.07F
ALTOONA        CLOUDY    82  68  62 W6        30.04F
STATE COLLEGE  MOSUNNY   81  68  65 S8        30.01F
WILLIAMSPORT   SUNNY     81  63  54 CALM      29.97F
SELINSGROVE    SUNNY     82  66  58 MISG      29.99F
FT INDIANTOWN  MOSUNNY   84  68  57 SW9       29.99F
CAPITAL CITY   CLOUDY    86  67  52 W3        29.99F
HARRISBURG     CLOUDY    84  68  58 VRB3      29.98F
YORK           CLOUDY    84  69  60 NW3       30.00F
$$

PAZ038>040-043-044-047-048-054-055-060>062-067>071-221800-
EASTERN PENNSYLVANIA

CITY           SKY/WX    TMP DP  RH WIND       PRES   REMARKS
SCRANTON       MOSUNNY   82  60  47 W14G22    29.99F
MOUNT POCONO   MOSUNNY   74  59  59 W9G17     30.04F
ALLENTOWN      MOSUNNY   84  61  45 SW10      29.99F
QUAKERTOWN*    SUNNY     82  63  51 SW5       30.01F
READING        MOSUNNY   85  68  56 VRB7      29.98F
LANCASTER      MOSUNNY   85  70  60 W6        29.99F
COATESVILLE    MOSUNNY   82  66  57 VRB6      30.03S
POTTSTOWN      PTSUNNY   82  63  52 VRB7      30.01F
BLUE BELL      SUNNY     82  64  54 SW9       30.00F
DOYLESTOWN     MOSUNNY   82  62  50 VRB6      29.99F
WILLOW GROVE   NOT AVBL
NORTH PHILA    SUNNY     86  63  45 S8        29.99F
PHILADELPHIA   PTSUNNY   86  62  44 SW13      29.99F
$$




USA.gov is the U.S. government's official web portal to all federal, state and local government web resources and services.